This is the latest recevied weather packets stored in our database for station/object KI8L. If no packets are shown the sender has not sent any weather packets the latest 10 day(s).
| Time | Temp. | Humidity | Pressure | Rain* | Wind** | Luminosity | Snow |
|---|---|---|---|---|---|---|---|
| 1778033344 | 10° C | 99% | 1011.4 hPa | 4.83 mm | - | 0 W/m² | - |
| 1778033042 | 10° C | 99% | 1011.5 hPa | 4.32 mm | - | 0 W/m² | - |
| 1778032739 | 10° C | 99% | 1011.1 hPa | 3.05 mm | - | 0 W/m² | - |
| 1778032436 | 10° C | 99% | 1011.1 hPa | 3.56 mm | - | 0 W/m² | - |
| 1778032133 | 10° C | 99% | 1010.7 hPa | 3.05 mm | - | 0 W/m² | - |
| 1778031830 | 10° C | 99% | 1010.9 hPa | 3.05 mm | - | 0 W/m² | - |
| 1778031527 | 10° C | 99% | 1010.7 hPa | 3.05 mm | - | 0 W/m² | - |
| 1778031224 | 10° C | 99% | 1010.5 hPa | 4.32 mm | - | 0 W/m² | - |
| 1778030920 | 10° C | 99% | 1010.3 hPa | 4.83 mm | - | 0 W/m² | - |
| 1778030617 | 10° C | 99% | 1010.4 hPa | 6.1 mm | - | 0 W/m² | - |
| 1778030314 | 10° C | 99% | 1010.6 hPa | 8.89 mm | - | 0 W/m² | - |
| 1778030011 | 10° C | 99% | 1010.5 hPa | 7.87 mm | - | 0 W/m² | - |
| 1778029709 | 10° C | 99% | 1010.5 hPa | 7.87 mm | - | 0 W/m² | - |
| 1778029406 | 10° C | 99% | 1010.4 hPa | 11.94 mm | - | 0 W/m² | - |
| 1778029103 | 10° C | 99% | 1010.4 hPa | 13.72 mm | - | 0 W/m² | - |
| 1778028800 | 10.56° C | 99% | 1010.2 hPa | 9.65 mm | - | 0 W/m² | - |
| 1778028496 | 10.56° C | 99% | 1010 hPa | 8.89 mm | - | 0 W/m² | - |
| 1778028194 | 11.11° C | 99% | 1010.2 hPa | 8.89 mm | - | 0 W/m² | - |
| 1778027889 | 11.11° C | 99% | 1010.3 hPa | 9.65 mm | - | 0 W/m² | - |
| 1778027586 | 11.11° C | 99% | 1009.9 hPa | 8.89 mm | - | 0 W/m² | - |
| 1778027282 | 11.11° C | 99% | 1009.9 hPa | 6.1 mm | - | 0 W/m² | - |
| 1778026979 | 11.11° C | 99% | 1009.9 hPa | 3.05 mm | - | 0 W/m² | - |
| 1778026674 | 11.11° C | 99% | 1009.8 hPa | 3.05 mm | - | 1 W/m² | - |
| 1778026372 | 11.11° C | 99% | 1009.7 hPa | 7.11 mm | - | 1 W/m² | - |
| 1778026069 | 11.11° C | 99% | 1009.7 hPa | 7.87 mm | - | 1 W/m² | - |
* Rain latest hour (hover to see other rain measurements)
** Current wind speed in m/s (hover to see current wind gust speed)